Back to catalog

BREEZE-M DEB

AliveHEO
NORAD 39326·DEBRIS·🇷🇺 Russia

Launched Mar 14, 2008 from Baikonur Cosmodrome

Loading…

Next Passes (next 24 hours)

TLE

AgingSource: Space-Track

Epoch: Aug 25, 2026, 00:15 UTC

1 39326U 08011DD  26237.01109235 -.00000058  00000-0  00000-0 0  9998
2 39326  48.1054 198.1150 5814466 135.2299 289.9675  2.89425561  3323

Track BREEZE-M DEB in real time with AllMySat

Download on the App Store